IUS R/B(2), 16119

Orbit data source: Space-Track

IUS R/B(2), 16119 is space debris in GEO originally from a launch on Thu, 03 Oct 1985 UTC launched from the Air Force Eastern Test Range (AFETR). Debris objects in space refer to the collection of defunct objects orbiting the Earth. Examples of debris include non-operational satellites, rocket bodies, and fragments generated from explosions, collisions, or faulty payload assembly.

Loading next visibility...
Identifier
16119, 1985-092E
Orbit
GEO
Country
Flag of USUS
Related business
Manufacturer
UTC CSD
Mission
Orbus 6E) (Atlantis (OV-104))"
Bus & Motor
ORBUS 6, Unknown motor
Mass
~1,100 kg wet, ~1,100 kg dry
Launch date (UTC)
1985-10-03 (40 years ago)
Launch vehicle
Unknown
Launch site
Air Force Eastern Test Range (AFETR)
Object type
Payload
Rocket body
Debris
Shape & HBR
Cyl, Unknown HBR
Radar Cross Section
8.086 m², Large (>1 m²)

Expand to show TLE details & history
Last TLE update: 17 hours ago

TLE from 17 hours ago
0 IUS R/B(2)
1 16119U 85092E   25259.30665676  .00000030  00000-0  00000-0 0  9997
2 16119  10.5448 316.8074 0058649 175.8261 184.2222  1.01086454 23288
Epoch: 2025-09-16T07:21Z
TLE epoch observation values (Epoch: 2025-09-16T07:21:35.144Z)
Latitude
0.00001°
Longitude
-149.07296°
Altitude
35,805.059 km
Speed
3.065 km/s
True Right ascension
21h 07m 17s
True Declination
0° 00' 00"
Sunlit
Object was in daylight at epoch
Visualization orbit readout
Latitude
Unknown
Longitude
Unknown
Altitude
Unknown
Speed
Unknown
Apparent Right ascension
Unknown
Apparent Declination
Unknown
Sunlit
N/A
Visualization observer readout
Local Sidereal Time
16:58:03
Azimuth
Unknown
Elevation
Unknown
Doppler factor
Unknown
Orbital elements
Apogee altitude
35,806.74 km
Perigee altitude
35,314.805 km
Semi-major axis
41,938.909 km
Eccentricity
0.00586
Inclination
10.5448°
RAAN
316.8074°
Arg. of periapsis
175.8261°
True anomaly
184.17308°
Mean anomaly
184.2222°
Eccentric anomaly
184.1976°
Mean motion
0.25271 °/min
Orbital period
1,424.57 mins
BSTAR
0
Loading maneuver chart data...
Computing Atmospheric mass density...
Loading historical data...
Loading historical data...
Loading historical data...
Loading historical data...
Loading historical data...
Loading historical data...
Loading historical data...
Other satellites on launch #92 in the year 1985 (1985-10-03 UTC)

Documentation

Showing up to 5 results
|